Time,TemperatureF,DewpointF,PressureIn,WindDirection,WindDirectionDegrees,WindSpeedMPH,WindSpeedGustMPH,Humidity,HourlyPrecipIn,Conditions,Clouds,dailyrainin,SoftwareType,DateUTC
2013-01-18 00:01:00,63.9,53.1,30.02,NW,315,4.6,4.6,68,0.00,RA,,0.00,WeatherDisplay:10.37,2013-01-18 05:01:00,
2013-01-18 00:02:00,63.9,53.1,30.02,NW,315,4.6,4.6,68,0.00,RA,,0.00,WeatherDisplay:10.37,2013-01-18 05:02:00,
2013-01-18 00:03:00,63.9,53.1,30.02,North,0,5.8,5.8,68,0.00,RA,,0.00,WeatherDisplay:10.37,2013-01-18 05:03:00,
2013-01-18 00:08:00,63.9,52.7,30.03,WSW,248,9.2,9.2,67,0.00,RA,,0.00,WeatherDisplay:10.37,2013-01-18 05:08:00,
2013-01-18 00:13:00,63.7,52.5,30.03,WNW,292,9.2,9.2,67,0.00,CLR,,0.00,WeatherDisplay:10.37,2013-01-18 05:13:00,
2013-01-18 00:18:00,63.7,52.5,30.03,NNW,338,6.9,6.9,67,0.00,CLR,,0.00,WeatherDisplay:10.37,2013-01-18 05:18:00,
2013-01-18 00:23:00,63.5,52.3,30.03,West,270,4.6,4.6,67,0.00,CLR,,0.00,WeatherDisplay:10.37,2013-01-18 05:23:00,
2013-01-18 00:28:00,63.5,52.3,30.02,NW,315,2.3,3.0,67,0.00,CLR,,0.00,WeatherDisplay:10.37,2013-01-18 05:28:00,
2013-01-18 00:33:00,63.5,52.7,30.02,West,270,2.3,2.5,68,0.00,CLR,,0.00,WeatherDisplay:10.37,2013-01-18 05:33:00,
2013-01-18 00:38:00,63.5,52.7,30.02,NW,315,6.9,6.9,68,0.00,CLR,,0.00,WeatherDisplay:10.37,2013-01-18 05:38:00,
2013-01-18 00:43:00,63.3,52.6,30.02,NNW,338,3.5,3.5,68,0.00,CLR,,0.00,WeatherDisplay:10.37,2013-01-18 05:43:00,
2013-01-18 00:48:00,63.3,52.6,30.04,ENE,68,5.8,5.8,68,0.00,CLR,,0.00,WeatherDisplay:10.37,2013-01-18 05:48:00,
2013-01-18 00:53:00,63.1,52.4,30.04,NW,315,4.6,4.6,68,0.00,CLR,,0.00,WeatherDisplay:10.37,2013-01-18 05:53:00,
2013-01-18 00:58:00,63.1,52.4,30.04,NW,315,4.6,4.6,68,0.00,CLR,,0.00,WeatherDisplay:10.37,2013-01-18 05:58:00,
2013-01-18 01:03:00,63.1,52.8,30.04,NW,315,2.3,2.3,69,0.00,CLR,,0.00,WeatherDisplay:10.37,2013-01-18 06:03:00,
2013-01-18 01:08:00,63.0,52.2,30.03,NNW,338,2.3,2.3,68,0.00,CLR,,0.00,WeatherDisplay:10.37,2013-01-18 06:08:00,
2013-01-18 01:13:00,63.0,52.6,30.03,West,270,4.6,4.6,69,0.00,CLR,,0.00,WeatherDisplay:10.37,2013-01-18 06:13:00,
2013-01-18 01:18:00,63.0,52.6,30.03,SW,225,2.3,2.3,69,0.00,CLR,,0.00,WeatherDisplay:10.37,2013-01-18 06:18:00,
2013-01-18 01:23:00,63.0,52.6,30.03,WNW,292,3.5,3.5,69,0.00,CLR,,0.00,WeatherDisplay:10.37,2013-01-18 06:23:00,
2013-01-18 01:28:00,62.8,52.5,30.04,NW,315,3.5,3.5,69,0.00,CLR,,0.00,WeatherDisplay:10.37,2013-01-18 06:28:00,
2013-01-18 01:33:00,62.8,52.5,30.04,NW,315,3.5,3.5,69,0.00,CLR,,0.00,WeatherDisplay:10.37,2013-01-18 06:33:00,
2013-01-18 01:38:00,62.6,52.3,30.04,North,0,2.3,2.3,69,0.00,CLR,,0.00,WeatherDisplay:10.37,2013-01-18 06:38:00,
2013-01-18 01:43:00,62.8,52.5,30.04,NW,315,9.2,9.2,69,0.00,CLR,,0.00,WeatherDisplay:10.37,2013-01-18 06:43:00,
2013-01-18 01:48:00,62.4,52.1,30.03,NW,315,3.5,3.5,69,0.00,CLR,,0.00,WeatherDisplay:10.37,2013-01-18 06:48:00,
2013-01-18 01:53:00,62.2,51.9,30.03,WNW,292,3.5,3.5,69,0.00,CLR,,0.00,WeatherDisplay:10.37,2013-01-18 06:53:00,
2013-01-18 01:58:00,62.2,51.9,30.03,NW,315,2.3,2.5,69,0.00,CLR,,0.00,WeatherDisplay:10.37,2013-01-18 06:58:00,
2013-01-18 02:03:00,62.2,51.9,30.03,NW,315,4.6,4.6,69,0.00,CLR,,0.00,WeatherDisplay:10.37,2013-01-18 07:03:00,
2013-01-18 02:08:00,62.1,51.8,30.04,NW,315,3.5,3.5,69,0.00,CLR,,0.00,WeatherDisplay:10.37,2013-01-18 07:08:00,
2013-01-18 02:13:00,62.1,52.2,30.04,North,0,6.9,6.9,70,0.00,CLR,,0.00,WeatherDisplay:10.37,2013-01-18 07:13:00,
2013-01-18 02:18:00,61.9,51.6,30.04,NW,315,3.5,3.5,69,0.00,CLR,,0.00,WeatherDisplay:10.37,2013-01-18 07:18:00,
2013-01-18 02:23:00,62.1,51.8,30.04,WSW,248,2.3,2.3,69,0.00,CLR,,0.00,WeatherDisplay:10.37,2013-01-18 07:23:00,
2013-01-18 02:28:00,61.7,51.8,30.04,NNW,338,1.1,1.5,70,0.00,CLR,,0.00,WeatherDisplay:10.37,2013-01-18 07:28:00,
2013-01-18 02:33:00,61.7,51.8,30.04,WSW,248,2.3,2.3,70,0.00,CLR,,0.00,WeatherDisplay:10.37,2013-01-18 07:33:00,
2013-01-18 02:38:00,61.5,51.6,30.04,SW,225,2.3,2.3,70,0.00,CLR,,0.00,WeatherDisplay:10.37,2013-01-18 07:38:00,
2013-01-18 02:43:00,61.7,51.8,30.04,WSW,248,3.5,3.5,70,0.00,CLR,,0.00,WeatherDisplay:10.37,2013-01-18 07:43:00,
2013-01-18 02:48:00,61.5,51.6,30.05,NW,315,3.5,3.5,70,0.00,CLR,,0.00,WeatherDisplay:10.37,2013-01-18 07:48:00,
2013-01-18 02:53:00,61.3,51.5,30.05,NW,315,2.3,2.3,70,0.00,CLR,,0.00,WeatherDisplay:10.37,2013-01-18 07:53:00,
2013-01-18 02:58:00,61.3,51.5,30.05,SSE,158,0.0,1.7,70,0.00,CLR,,0.00,WeatherDisplay:10.37,2013-01-18 07:58:00,
2013-01-18 03:03:00,61.2,51.3,30.05,NW,315,2.3,2.3,70,0.00,CLR,,0.00,WeatherDisplay:10.37,2013-01-18 08:03:00,
2013-01-18 03:08:00,61.3,51.5,30.05,NNW,338,1.1,1.1,70,0.00,CLR,,0.00,WeatherDisplay:10.37,2013-01-18 08:08:00,
2013-01-18 03:13:00,61.3,51.9,30.05,ENE,68,4.6,4.6,71,0.00,CLR,,0.00,WeatherDisplay:10.37,2013-01-18 08:13:00,
2013-01-18 03:18:00,61.2,51.7,30.05,NNE,22,1.1,1.1,71,0.00,CLR,,0.00,WeatherDisplay:10.37,2013-01-18 08:18:00,
2013-01-18 03:23:00,61.0,51.5,30.05,NW,315,3.5,3.5,71,0.00,CLR,,0.00,WeatherDisplay:10.37,2013-01-18 08:23:00,
2013-01-18 03:28:00,61.0,51.5,30.05,NW,315,4.6,4.6,71,0.00,CLR,,0.00,WeatherDisplay:10.37,2013-01-18 08:28:00,
2013-01-18 03:33:00,61.0,51.5,30.05,NW,315,0.0,0.8,71,0.00,CLR,,0.00,WeatherDisplay:10.37,2013-01-18 08:33:00,
2013-01-18 03:38:00,61.0,51.5,30.05,NNW,338,2.3,2.3,71,0.00,CLR,,0.00,WeatherDisplay:10.37,2013-01-18 08:38:00,
2013-01-18 03:43:00,60.8,51.3,30.05,NW,315,0.0,1.0,71,0.00,CLR,,0.00,WeatherDisplay:10.37,2013-01-18 08:43:00,
2013-01-18 03:48:00,60.8,51.3,30.05,West,270,2.3,2.3,71,0.00,CLR,,0.00,WeatherDisplay:10.37,2013-01-18 08:48:00,
2013-01-18 03:53:00,60.8,51.3,30.05,NNW,338,2.3,2.3,71,0.00,CLR,,0.00,WeatherDisplay:10.37,2013-01-18 08:53:00,
2013-01-18 03:58:00,60.6,51.2,30.05,NW,315,0.0,0.3,71,0.00,CLR,,0.00,WeatherDisplay:10.37,2013-01-18 08:58:00,
2013-01-18 04:03:00,60.6,51.2,30.05,NNW,338,0.0,0.2,71,0.00,CLR,,0.00,WeatherDisplay:10.37,2013-01-18 09:03:00,
2013-01-18 04:08:00,60.4,51.0,30.06,WNW,292,0.0,0.3,71,0.00,CLR,,0.00,WeatherDisplay:10.37,2013-01-18 09:08:00,
2013-01-18 04:13:00,60.6,51.2,30.06,NNW,338,3.5,3.5,71,0.00,CLR,,0.00,WeatherDisplay:10.37,2013-01-18 09:13:00,
2013-01-18 04:18:00,60.3,50.8,30.06,NNE,22,3.5,3.5,71,0.00,CLR,,0.00,WeatherDisplay:10.37,2013-01-18 09:18:00,
2013-01-18 04:23:00,60.4,51.0,30.06,North,0,4.6,4.6,71,0.00,CLR,,0.00,WeatherDisplay:10.37,2013-01-18 09:23:00,
2013-01-18 04:28:00,60.4,51.0,30.06,NNW,338,4.6,4.6,71,0.00,CLR,,0.00,WeatherDisplay:10.37,2013-01-18 09:28:00,
2013-01-18 04:33:00,60.6,51.2,30.06,North,0,2.3,2.3,71,0.00,CLR,,0.00,WeatherDisplay:10.37,2013-01-18 09:33:00,
2013-01-18 04:38:00,60.4,50.6,30.06,NNW,338,2.3,2.3,70,0.00,CLR,,0.00,WeatherDisplay:10.37,2013-01-18 09:38:00,
2013-01-18 04:43:00,60.6,50.8,30.06,NNW,338,2.3,2.3,70,0.00,CLR,,0.00,WeatherDisplay:10.37,2013-01-18 09:43:00,
2013-01-18 04:48:00,60.3,50.0,30.06,NE,45,6.9,6.9,69,0.00,CLR,,0.00,WeatherDisplay:10.37,2013-01-18 09:48:00,
2013-01-18 04:53:00,60.1,49.9,30.06,North,0,3.5,3.5,69,0.00,CLR,,0.00,WeatherDisplay:10.37,2013-01-18 09:53:00,
2013-01-18 04:58:00,59.9,49.3,30.06,NNE,22,5.8,5.8,68,0.00,CLR,,0.00,WeatherDisplay:10.37,2013-01-18 09:58:00,
2013-01-18 05:03:00,59.5,49.4,30.06,NW,315,2.3,2.6,69,0.00,CLR,,0.00,WeatherDisplay:10.37,2013-01-18 10:03:00,
2013-01-18 05:08:00,59.5,49.4,30.06,WNW,292,1.1,1.8,69,0.00,CLR,,0.00,WeatherDisplay:10.37,2013-01-18 10:08:00,
2013-01-18 05:13:00,59.5,49.4,30.06,North,0,3.5,3.5,69,0.00,CLR,,0.00,WeatherDisplay:10.37,2013-01-18 10:13:00,
2013-01-18 05:19:00,59.4,48.8,30.06,North,0,4.6,4.6,68,0.00,CLR,,0.00,WeatherDisplay:10.37,2013-01-18 10:19:00,
2013-01-18 05:24:00,59.4,49.2,30.06,North,0,0.0,1.6,69,0.00,CLR,,0.00,WeatherDisplay:10.37,2013-01-18 10:24:00,
2013-01-18 05:29:00,59.0,48.4,30.07,SW,225,2.3,2.3,68,0.00,CLR,,0.00,WeatherDisplay:10.37,2013-01-18 10:29:00,
2013-01-18 05:34:00,58.6,48.5,30.07,NW,315,1.1,1.6,69,0.00,CLR,,0.00,WeatherDisplay:10.37,2013-01-18 10:34:00,
2013-01-18 05:39:00,58.5,48.3,30.07,NW,315,3.5,3.5,69,0.00,CLR,,0.00,WeatherDisplay:10.37,2013-01-18 10:39:00,
2013-01-18 05:44:00,58.5,47.9,30.07,NW,315,2.3,2.3,68,0.00,CLR,,0.00,WeatherDisplay:10.37,2013-01-18 10:44:00,
2013-01-18 05:49:00,58.5,48.3,30.09,NNE,22,3.5,3.5,69,0.00,CLR,,0.00,WeatherDisplay:10.37,2013-01-18 10:49:00,
2013-01-18 05:54:00,58.1,48.0,30.09,NNE,22,3.5,3.5,69,0.00,CLR,,0.00,WeatherDisplay:10.37,2013-01-18 10:54:00,
2013-01-18 05:59:00,58.1,48.0,30.09,NNW,338,4.6,4.6,69,0.00,CLR,,0.00,WeatherDisplay:10.37,2013-01-18 10:59:00,
2013-01-18 06:04:00,57.7,47.6,30.09,North,0,0.0,1.7,69,0.00,CLR,,0.00,WeatherDisplay:10.37,2013-01-18 11:04:00,
2013-01-18 06:09:00,57.4,47.3,30.10,NNW,338,2.3,2.3,69,0.00,CLR,,0.00,WeatherDisplay:10.37,2013-01-18 11:09:00,
2013-01-18 06:14:00,57.2,47.1,30.10,NW,315,2.3,2.3,69,0.00,CLR,,0.00,WeatherDisplay:10.37,2013-01-18 11:14:00,
2013-01-18 06:19:00,57.0,46.9,30.10,NNW,338,6.9,6.9,69,0.00,CLR,,0.00,WeatherDisplay:10.37,2013-01-18 11:19:00,
2013-01-18 06:24:00,57.0,47.3,30.10,North,0,2.3,2.3,70,0.00,CLR,,0.00,WeatherDisplay:10.37,2013-01-18 11:24:00,
2013-01-18 06:29:00,56.8,47.2,30.11,NNW,338,2.3,2.3,70,0.00,CLR,,0.00,WeatherDisplay:10.37,2013-01-18 11:29:00,
2013-01-18 06:34:00,56.7,47.0,30.11,WNW,292,4.6,4.6,70,0.00,CLR,,0.00,WeatherDisplay:10.37,2013-01-18 11:34:00,
2013-01-18 06:39:00,56.5,46.8,30.11,East,90,1.1,1.3,70,0.00,CLR,,0.00,WeatherDisplay:10.37,2013-01-18 11:39:00,
2013-01-18 06:44:00,56.5,46.8,30.11,NW,315,1.1,1.3,70,0.00,CLR,,0.00,WeatherDisplay:10.37,2013-01-18 11:44:00,
2013-01-18 06:49:00,56.5,46.8,30.11,WNW,292,8.1,8.1,70,0.00,CLR,,0.00,WeatherDisplay:10.37,2013-01-18 11:49:00,
2013-01-18 06:54:00,56.5,46.8,30.11,NNW,338,3.5,3.5,70,0.00,CLR,,0.00,WeatherDisplay:10.37,2013-01-18 11:54:00,
2013-01-18 06:59:00,56.7,47.0,30.11,WSW,248,2.3,2.3,70,0.00,CLR,,0.00,WeatherDisplay:10.37,2013-01-18 11:59:00,
2013-01-18 07:04:00,56.7,47.0,30.11,WSW,248,3.5,3.5,70,0.00,CLR,,0.00,WeatherDisplay:10.37,2013-01-18 12:04:00,
2013-01-18 07:09:00,56.5,46.4,30.11,NW,315,3.5,3.5,69,0.00,CLR,,0.00,WeatherDisplay:10.37,2013-01-18 12:09:00,
2013-01-18 07:14:00,56.5,46.4,30.11,NW,315,0.0,2.0,69,0.00,CLR,,0.00,WeatherDisplay:10.37,2013-01-18 12:14:00,
2013-01-18 07:19:00,56.7,47.0,30.11,West,270,2.3,2.3,70,0.00,CLR,,0.00,WeatherDisplay:10.37,2013-01-18 12:19:00,
2013-01-18 07:24:00,56.7,47.0,30.11,WNW,292,0.0,1.3,70,0.00,CLR,,0.00,WeatherDisplay:10.37,2013-01-18 12:24:00,
2013-01-18 07:29:00,56.7,47.0,30.12,WSW,248,2.3,2.3,70,0.00,CLR,,0.00,WeatherDisplay:10.37,2013-01-18 12:29:00,
2013-01-18 07:34:00,56.8,46.8,30.12,WNW,292,2.3,2.3,69,0.00,CLR,,0.00,WeatherDisplay:10.37,2013-01-18 12:34:00,
2013-01-18 07:39:00,56.8,47.2,30.12,NNE,22,2.3,2.3,70,0.00,CLR,,0.00,WeatherDisplay:10.37,2013-01-18 12:39:00,
2013-01-18 07:44:00,57.0,46.9,30.12,NW,315,6.9,6.9,69,0.00,CLR,,0.00,WeatherDisplay:10.37,2013-01-18 12:44:00,
2013-01-18 07:49:00,57.0,46.9,30.13,NE,45,4.6,4.6,69,0.00,CLR,,0.00,WeatherDisplay:10.37,2013-01-18 12:49:00,
2013-01-18 07:54:00,57.0,46.9,30.13,NNE,22,0.0,2.0,69,0.00,CLR,,0.00,WeatherDisplay:10.37,2013-01-18 12:54:00,
2013-01-18 07:59:00,57.2,47.1,30.13,NNW,338,4.6,4.6,69,0.00,CLR,,0.00,WeatherDisplay:10.37,2013-01-18 12:59:00,
2013-01-18 08:04:00,57.4,47.3,30.13,NW,315,1.1,1.4,69,0.00,CLR,,0.00,WeatherDisplay:10.37,2013-01-18 13:04:00,
2013-01-18 08:09:00,57.7,47.6,30.13,NW,315,2.3,2.3,69,0.00,CLR,,0.00,WeatherDisplay:10.37,2013-01-18 13:09:00,
2013-01-18 08:14:00,57.9,47.8,30.13,West,270,3.5,3.5,69,0.00,CLR,,0.00,WeatherDisplay:10.37,2013-01-18 13:14:00,
2013-01-18 08:19:00,57.9,47.4,30.13,NNW,338,6.9,6.9,68,0.00,CLR,,0.00,WeatherDisplay:10.37,2013-01-18 13:19:00,
2013-01-18 08:24:00,58.1,48.0,30.13,West,270,4.6,4.6,69,0.00,CLR,,0.00,WeatherDisplay:10.37,2013-01-18 13:24:00,
2013-01-18 08:29:00,58.3,48.2,30.13,NW,315,3.5,3.5,69,0.00,CLR,,0.00,WeatherDisplay:10.37,2013-01-18 13:29:00,
2013-01-18 08:34:00,58.5,47.9,30.13,SSW,202,2.3,2.3,68,0.00,CLR,,0.00,WeatherDisplay:10.37,2013-01-18 13:34:00,
2013-01-18 08:39:00,58.6,48.1,30.13,NE,45,2.3,2.3,68,0.00,CLR,,0.00,WeatherDisplay:10.37,2013-01-18 13:39:00,
2013-01-18 08:44:00,58.8,48.3,30.13,NE,45,2.3,2.3,68,0.00,CLR,,0.00,WeatherDisplay:10.37,2013-01-18 13:44:00,
2013-01-18 08:49:00,59.2,48.6,30.14,NW,315,4.6,4.6,68,0.00,CLR,,0.00,WeatherDisplay:10.37,2013-01-18 13:49:00,
2013-01-18 08:54:00,59.4,48.8,30.14,NNW,338,2.3,2.3,68,0.00,CLR,,0.00,WeatherDisplay:10.37,2013-01-18 13:54:00,
2013-01-18 08:59:00,59.4,48.8,30.14,West,270,2.3,2.3,68,0.00,CLR,,0.00,WeatherDisplay:10.37,2013-01-18 13:59:00,
2013-01-18 09:04:00,59.9,49.3,30.14,WSW,248,2.3,2.3,68,0.00,CLR,,0.00,WeatherDisplay:10.37,2013-01-18 14:04:00,
2013-01-18 09:09:00,59.9,48.9,30.14,West,270,3.5,3.5,67,0.00,CLR,,0.00,WeatherDisplay:10.37,2013-01-18 14:09:00,
2013-01-18 09:14:00,60.1,48.7,30.14,SSE,158,3.5,3.5,66,0.00,CLR,,0.00,WeatherDisplay:10.37,2013-01-18 14:14:00,
2013-01-18 09:19:00,60.1,49.1,30.14,NW,315,2.3,2.3,67,0.00,CLR,,0.00,WeatherDisplay:10.37,2013-01-18 14:19:00,
2013-01-18 09:24:00,60.8,49.8,30.14,West,270,1.1,1.6,67,0.00,CLR,,0.00,WeatherDisplay:10.37,2013-01-18 14:24:00,
2013-01-18 09:29:00,61.0,49.9,30.15,North,0,5.8,5.8,67,0.00,CLR,,0.00,WeatherDisplay:10.37,2013-01-18 14:29:00,
2013-01-18 09:34:00,61.0,49.9,30.15,NNW,338,2.3,2.3,67,0.00,CLR,,0.00,WeatherDisplay:10.37,2013-01-18 14:34:00,
2013-01-18 09:39:00,61.3,49.9,30.15,NW,315,2.3,2.3,66,0.00,CLR,,0.00,WeatherDisplay:10.37,2013-01-18 14:39:00,
2013-01-18 09:44:00,61.5,50.1,30.15,West,270,1.1,2.2,66,0.00,CLR,,0.00,WeatherDisplay:10.37,2013-01-18 14:44:00,
2013-01-18 09:49:00,61.9,50.0,30.14,North,0,2.3,2.3,65,0.00,CLR,,0.00,WeatherDisplay:10.37,2013-01-18 14:49:00,
2013-01-18 09:54:00,61.9,50.4,30.14,NW,315,3.5,3.5,66,0.00,CLR,,0.00,WeatherDisplay:10.37,2013-01-18 14:54:00,
2013-01-18 09:59:00,62.2,50.3,30.14,WNW,292,2.3,2.3,65,0.00,CLR,,0.00,WeatherDisplay:10.37,2013-01-18 14:59:00,
2013-01-18 10:04:00,62.4,50.5,30.14,WSW,248,2.3,2.4,65,0.00,CLR,,0.00,WeatherDisplay:10.37,2013-01-18 15:04:00,
2013-01-18 10:09:00,62.4,50.5,30.14,West,270,2.3,2.3,65,0.00,CLR,,0.00,WeatherDisplay:10.37,2013-01-18 15:09:00,
2013-01-18 10:14:00,62.8,50.4,30.14,WNW,292,1.1,1.8,64,0.00,CLR,,0.00,WeatherDisplay:10.37,2013-01-18 15:14:00,
2013-01-18 10:19:00,63.0,50.6,30.14,WSW,248,1.1,1.5,64,0.00,CLR,,0.00,WeatherDisplay:10.37,2013-01-18 15:19:00,
2013-01-18 10:24:00,63.1,50.8,30.14,West,270,2.3,2.3,64,0.00,CLR,,0.00,WeatherDisplay:10.37,2013-01-18 15:24:00,
2013-01-18 10:29:00,63.3,50.9,30.15,NNE,22,2.3,2.3,64,0.00,CLR,,0.00,WeatherDisplay:10.37,2013-01-18 15:29:00,
2013-01-18 10:34:00,63.9,51.4,30.15,NW,315,3.5,3.5,64,0.00,CLR,,0.00,WeatherDisplay:10.37,2013-01-18 15:34:00,
2013-01-18 10:39:00,64.0,51.6,30.15,NE,45,2.3,2.3,64,0.00,CLR,,0.00,WeatherDisplay:10.37,2013-01-18 15:39:00,
2013-01-18 10:44:00,64.2,51.4,30.15,NW,315,3.5,3.5,63,0.00,CLR,,0.00,WeatherDisplay:10.37,2013-01-18 15:44:00,
2013-01-18 10:49:00,64.2,51.4,30.16,West,270,4.6,4.6,63,0.00,CLR,,0.00,WeatherDisplay:10.37,2013-01-18 15:49:00,
2013-01-18 10:54:00,64.6,51.7,30.16,SW,225,2.3,2.3,63,0.00,CLR,,0.00,WeatherDisplay:10.37,2013-01-18 15:54:00,
2013-01-18 10:59:00,64.9,52.0,30.16,WSW,248,2.3,2.3,63,0.00,CLR,,0.00,WeatherDisplay:10.37,2013-01-18 15:59:00,
2013-01-18 11:04:00,64.9,52.0,30.16,North,0,2.3,2.3,63,0.00,CLR,,0.00,WeatherDisplay:10.37,2013-01-18 16:04:00,
2013-01-18 11:09:00,65.3,52.4,30.15,NNE,22,2.3,2.3,63,0.00,CLR,,0.00,WeatherDisplay:10.37,2013-01-18 16:09:00,
2013-01-18 11:15:00,65.7,52.3,30.15,WSW,248,4.6,4.6,62,0.00,CLR,,0.00,WeatherDisplay:10.37,2013-01-18 16:15:00,
2013-01-18 11:20:00,65.8,52.9,30.15,NW,315,2.3,2.3,63,0.00,CLR,,0.00,WeatherDisplay:10.37,2013-01-18 16:20:00,
2013-01-18 11:25:00,65.8,52.9,30.15,SE,135,2.3,2.3,63,0.00,CLR,,0.00,WeatherDisplay:10.37,2013-01-18 16:25:00,
2013-01-18 11:30:00,66.4,53.4,30.14,ENE,68,3.5,3.5,63,0.00,CLR,,0.00,WeatherDisplay:10.37,2013-01-18 16:30:00,
2013-01-18 11:35:00,66.4,53.0,30.14,WNW,292,1.1,2.0,62,0.00,CLR,,0.00,WeatherDisplay:10.37,2013-01-18 16:35:00,
2013-01-18 11:40:00,66.6,53.1,30.14,NW,315,3.5,3.5,62,0.00,CLR,,0.00,WeatherDisplay:10.37,2013-01-18 16:40:00,
2013-01-18 11:45:00,66.6,53.1,30.14,NE,45,4.6,4.6,62,0.00,CLR,,0.00,WeatherDisplay:10.37,2013-01-18 16:45:00,
2013-01-18 11:50:00,66.7,53.3,30.14,NNE,22,3.5,3.5,62,0.00,CLR,,0.00,WeatherDisplay:10.37,2013-01-18 16:50:00,
2013-01-18 11:55:00,67.1,54.1,30.14,West,270,2.3,2.3,63,0.00,CLR,,0.00,WeatherDisplay:10.37,2013-01-18 16:55:00,
2013-01-18 12:00:00,67.3,54.3,30.14,NNE,22,2.3,2.3,63,0.00,CLR,,0.00,WeatherDisplay:10.37,2013-01-18 17:00:00,
2013-01-18 12:05:00,67.8,54.8,30.14,NNW,338,3.5,3.5,63,0.00,CLR,,0.00,WeatherDisplay:10.37,2013-01-18 17:05:00,
2013-01-18 12:10:00,67.8,54.8,30.13,NNW,338,3.5,3.5,63,0.00,CLR,,0.00,WeatherDisplay:10.37,2013-01-18 17:10:00,
2013-01-18 12:15:00,67.8,54.3,30.13,North,0,5.8,5.8,62,0.00,CLR,,0.00,WeatherDisplay:10.37,2013-01-18 17:15:00,
2013-01-18 12:20:00,68.2,54.7,30.13,West,270,4.6,4.6,62,0.00,CLR,,0.00,WeatherDisplay:10.37,2013-01-18 17:20:00,
2013-01-18 12:25:00,68.5,55.0,30.13,NNE,22,3.5,3.5,62,0.00,CLR,,0.00,WeatherDisplay:10.37,2013-01-18 17:25:00,
2013-01-18 12:30:00,68.4,54.8,30.11,NNW,338,4.6,4.6,62,0.00,CLR,,0.00,WeatherDisplay:10.37,2013-01-18 17:30:00,
2013-01-18 12:35:00,68.7,55.2,30.11,NE,45,2.3,2.3,62,0.00,CLR,,0.00,WeatherDisplay:10.37,2013-01-18 17:35:00,
2013-01-18 12:40:00,68.9,55.3,30.11,NNW,338,1.1,2.0,62,0.00,CLR,,0.00,WeatherDisplay:10.37,2013-01-18 17:40:00,
2013-01-18 12:45:00,69.3,55.7,30.11,NW,315,2.3,2.3,62,0.00,CLR,,0.00,WeatherDisplay:10.37,2013-01-18 17:45:00,
2013-01-18 12:50:00,69.4,56.3,30.11,NNW,338,1.1,1.8,63,0.00,CLR,,0.00,WeatherDisplay:10.37,2013-01-18 17:50:00,
2013-01-18 12:55:00,69.4,55.9,30.11,WNW,292,3.5,3.5,62,0.00,CLR,,0.00,WeatherDisplay:10.37,2013-01-18 17:55:00,
2013-01-18 13:00:00,69.6,56.5,30.11,NNW,338,2.3,2.5,63,0.00,CLR,,0.00,WeatherDisplay:10.37,2013-01-18 18:00:00,
2013-01-18 13:05:00,70.0,56.8,30.11,NE,45,2.3,2.3,63,0.00,CLR,,0.00,WeatherDisplay:10.37,2013-01-18 18:05:00,
2013-01-18 13:10:00,70.0,56.8,30.11,NE,45,2.3,2.6,63,0.00,CLR,,0.00,WeatherDisplay:10.37,2013-01-18 18:10:00,
2013-01-18 13:15:00,70.0,57.2,30.11,NW,315,3.5,3.5,64,0.00,CLR,,0.00,WeatherDisplay:10.37,2013-01-18 18:15:00,
2013-01-18 13:20:00,70.2,57.0,30.11,ENE,68,2.3,2.6,63,0.00,CLR,,0.00,WeatherDisplay:10.37,2013-01-18 18:20:00,
2013-01-18 13:25:00,69.8,57.1,30.11,ENE,68,3.5,3.5,64,0.00,CLR,,0.00,WeatherDisplay:10.37,2013-01-18 18:25:00,
2013-01-18 13:30:00,70.2,57.4,30.10,NNW,338,4.6,4.6,64,0.00,CLR,,0.00,WeatherDisplay:10.37,2013-01-18 18:30:00,
2013-01-18 13:35:00,70.3,57.6,30.10,East,90,2.3,3.1,64,0.00,CLR,,0.00,WeatherDisplay:10.37,2013-01-18 18:35:00,
2013-01-18 13:40:00,70.3,57.6,30.10,North,0,4.6,4.6,64,0.00,CLR,,0.00,WeatherDisplay:10.37,2013-01-18 18:40:00,
2013-01-18 13:45:00,70.3,57.6,30.10,NE,45,3.5,3.5,64,0.00,CLR,,0.00,WeatherDisplay:10.37,2013-01-18 18:45:00,
2013-01-18 13:50:00,70.3,57.6,30.10,NNW,338,5.8,5.8,64,0.00,CLR,,0.00,WeatherDisplay:10.37,2013-01-18 18:50:00,
2013-01-18 13:55:00,70.5,58.2,30.10,West,270,2.3,3.5,65,0.00,CLR,,0.00,WeatherDisplay:10.37,2013-01-18 18:55:00,
2013-01-18 14:00:00,70.5,57.8,30.10,ENE,68,6.9,6.9,64,0.00,CLR,,0.00,WeatherDisplay:10.37,2013-01-18 19:00:00,
2013-01-18 14:05:00,70.3,58.0,30.10,NNE,22,4.6,4.6,65,0.00,CLR,,0.00,WeatherDisplay:10.37,2013-01-18 19:05:00,
2013-01-18 14:10:00,70.3,58.0,30.08,ESE,112,5.8,5.8,65,0.00,CLR,,0.00,WeatherDisplay:10.37,2013-01-18 19:10:00,
2013-01-18 14:15:00,70.3,57.6,30.08,North,0,3.5,3.8,64,0.00,CLR,,0.00,WeatherDisplay:10.37,2013-01-18 19:15:00,
2013-01-18 14:21:00,70.7,57.9,30.08,North,0,4.6,4.6,64,0.00,CLR,,0.00,WeatherDisplay:10.37,2013-01-18 19:21:00,
2013-01-18 14:26:00,70.7,57.9,30.08,North,0,6.9,6.9,64,0.00,CLR,,0.00,WeatherDisplay:10.37,2013-01-18 19:26:00,
2013-01-18 14:31:00,70.2,57.4,30.09,NNW,338,4.6,4.6,64,0.00,CLR,,0.00,WeatherDisplay:10.37,2013-01-18 19:31:00,
2013-01-18 14:36:00,70.3,57.6,30.09,NNE,22,4.6,4.6,64,0.00,CLR,,0.00,WeatherDisplay:10.37,2013-01-18 19:36:00,
2013-01-18 14:41:00,70.7,57.9,30.09,NNE,22,6.9,6.9,64,0.00,CLR,,0.00,WeatherDisplay:10.37,2013-01-18 19:41:00,
2013-01-18 14:46:00,70.2,57.8,30.09,NNE,22,5.8,5.8,65,0.00,CLR,,0.00,WeatherDisplay:10.37,2013-01-18 19:46:00,
2013-01-18 14:51:00,70.0,58.1,30.10,NNW,338,4.6,4.6,66,0.00,CLR,,0.00,WeatherDisplay:10.37,2013-01-18 19:51:00,
2013-01-18 14:56:00,70.0,58.5,30.10,NNE,22,9.2,9.2,67,0.00,CLR,,0.00,WeatherDisplay:10.37,2013-01-18 19:56:00,
2013-01-18 15:01:00,70.0,58.5,30.10,NNE,22,5.8,5.8,67,0.00,CLR,,0.00,WeatherDisplay:10.37,2013-01-18 20:01:00,
2013-01-18 15:06:00,70.0,58.9,30.10,North,0,4.6,4.6,68,0.00,CLR,,0.00,WeatherDisplay:10.37,2013-01-18 20:06:00,
2013-01-18 15:11:00,70.0,58.9,30.08,NE,45,6.9,6.9,68,0.00,CLR,,0.00,WeatherDisplay:10.37,2013-01-18 20:11:00,
2013-01-18 15:16:00,70.2,59.1,30.08,NNE,22,4.6,4.6,68,0.00,CLR,,0.00,WeatherDisplay:10.37,2013-01-18 20:16:00,
2013-01-18 15:21:00,70.0,58.9,30.08,NNW,338,8.1,8.1,68,0.00,CLR,,0.00,WeatherDisplay:10.37,2013-01-18 20:21:00,
2013-01-18 15:26:00,70.0,59.3,30.08,North,0,2.3,4.1,69,0.00,CLR,,0.00,WeatherDisplay:10.37,2013-01-18 20:26:00,
2013-01-18 15:31:00,70.2,59.1,30.09,ENE,68,8.1,8.1,68,0.00,CLR,,0.00,WeatherDisplay:10.37,2013-01-18 20:31:00,
2013-01-18 15:36:00,70.2,59.1,30.09,WNW,292,8.1,8.1,68,0.00,CLR,,0.00,WeatherDisplay:10.37,2013-01-18 20:36:00,
2013-01-18 15:41:00,70.2,59.5,30.09,NNW,338,9.2,9.2,69,0.00,CLR,,0.00,WeatherDisplay:10.37,2013-01-18 20:41:00,
2013-01-18 15:46:00,70.0,59.3,30.09,NW,315,4.6,4.6,69,0.00,CLR,,0.00,WeatherDisplay:10.37,2013-01-18 20:46:00,
2013-01-18 15:51:00,70.0,59.3,30.08,NNE,22,3.5,3.9,69,0.00,CLR,,0.00,WeatherDisplay:10.37,2013-01-18 20:51:00,
2013-01-18 15:56:00,70.0,59.3,30.08,NW,315,5.8,5.8,69,0.00,CLR,,0.00,WeatherDisplay:10.37,2013-01-18 20:56:00,
2013-01-18 16:01:00,70.2,59.5,30.08,NNW,338,5.8,5.8,69,0.00,CLR,,0.00,WeatherDisplay:10.37,2013-01-18 21:01:00,
2013-01-18 16:06:00,69.8,59.2,30.08,West,270,5.8,5.8,69,0.00,CLR,,0.00,WeatherDisplay:10.37,2013-01-18 21:06:00,
2013-01-18 16:11:00,70.0,59.3,30.09,SW,225,2.3,3.9,69,0.00,CLR,,0.00,WeatherDisplay:10.37,2013-01-18 21:11:00,
2013-01-18 16:16:00,70.2,59.5,30.09,NNE,22,6.9,6.9,69,0.00,CLR,,0.00,WeatherDisplay:10.37,2013-01-18 21:16:00,
2013-01-18 16:21:00,70.3,59.3,30.09,NE,45,8.1,8.1,68,0.00,CLR,,0.00,WeatherDisplay:10.37,2013-01-18 21:21:00,
2013-01-18 16:26:00,70.3,59.3,30.09,NNW,338,4.6,4.6,68,0.00,CLR,,0.00,WeatherDisplay:10.37,2013-01-18 21:26:00,
2013-01-18 16:31:00,70.5,59.0,30.10,NNE,22,4.6,4.6,67,0.00,CLR,,0.00,WeatherDisplay:10.37,2013-01-18 21:31:00,
2013-01-18 16:36:00,70.7,58.8,30.10,NNW,338,6.9,6.9,66,0.00,CLR,,0.00,WeatherDisplay:10.37,2013-01-18 21:36:00,
2013-01-18 16:41:00,70.5,57.8,30.10,North,0,3.5,3.9,64,0.00,CLR,,0.00,WeatherDisplay:10.37,2013-01-18 21:41:00,
2013-01-18 16:46:00,70.9,58.1,30.10,NNE,22,6.9,6.9,64,0.00,CLR,,0.00,WeatherDisplay:10.37,2013-01-18 21:46:00,
2013-01-18 16:51:00,70.9,57.7,30.10,ENE,68,3.5,3.5,63,0.00,CLR,,0.00,WeatherDisplay:10.37,2013-01-18 21:51:00,
2013-01-18 16:56:00,71.1,57.8,30.10,NE,45,4.6,4.6,63,0.00,CLR,,0.00,WeatherDisplay:10.37,2013-01-18 21:56:00,
2013-01-18 17:01:00,70.9,57.7,30.10,ENE,68,2.3,3.5,63,0.00,CLR,,0.00,WeatherDisplay:10.37,2013-01-18 22:01:00,
2013-01-18 17:06:00,70.9,57.7,30.10,NE,45,8.1,8.1,63,0.00,CLR,,0.00,WeatherDisplay:10.37,2013-01-18 22:06:00,
2013-01-18 17:11:00,70.7,57.5,30.11,East,90,4.6,4.6,63,0.00,CLR,,0.00,WeatherDisplay:10.37,2013-01-18 22:11:00,
2013-01-18 17:16:00,70.7,57.5,30.11,NE,45,5.8,5.8,63,0.00,CLR,,0.00,WeatherDisplay:10.37,2013-01-18 22:16:00,
2013-01-18 17:21:00,70.7,57.5,30.11,NNW,338,5.8,5.8,63,0.00,CLR,,0.00,WeatherDisplay:10.37,2013-01-18 22:21:00,
2013-01-18 17:26:00,70.7,57.5,30.11,NNE,22,9.2,9.2,63,0.00,CLR,,0.00,WeatherDisplay:10.37,2013-01-18 22:26:00,
2013-01-18 17:31:00,70.7,57.0,30.11,NNE,22,4.6,4.6,62,0.00,CLR,,0.00,WeatherDisplay:10.37,2013-01-18 22:31:00,
2013-01-18 17:36:00,70.5,56.9,30.11,NE,45,4.6,4.6,62,0.00,CLR,,0.00,WeatherDisplay:10.37,2013-01-18 22:36:00,
2013-01-18 17:41:00,70.3,56.7,30.11,East,90,5.8,5.8,62,0.00,CLR,,0.00,WeatherDisplay:10.37,2013-01-18 22:41:00,
2013-01-18 17:46:00,70.2,56.5,30.11,NNE,22,5.8,5.8,62,0.00,CLR,,0.00,WeatherDisplay:10.37,2013-01-18 22:46:00,
2013-01-18 17:51:00,70.3,56.7,30.13,East,90,6.9,6.9,62,0.00,CLR,,0.00,WeatherDisplay:10.37,2013-01-18 22:51:00,
2013-01-18 17:56:00,70.2,56.5,30.13,North,0,2.3,3.2,62,0.00,CLR,,0.00,WeatherDisplay:10.37,2013-01-18 22:56:00,
2013-01-18 18:01:00,70.3,56.7,30.13,NNE,22,4.6,4.6,62,0.00,CLR,,0.00,WeatherDisplay:10.37,2013-01-18 23:01:00,
2013-01-18 18:06:00,70.2,56.1,30.12,NNE,22,4.6,4.6,61,0.00,CLR,,0.00,WeatherDisplay:10.37,2013-01-18 23:06:00,
2013-01-18 18:11:00,70.2,56.1,30.12,NNW,338,1.1,2.4,61,0.00,CLR,,0.00,WeatherDisplay:10.37,2013-01-18 23:11:00,
2013-01-18 18:16:00,70.3,56.2,30.12,NNE,22,6.9,6.9,61,0.00,CLR,,0.00,WeatherDisplay:10.37,2013-01-18 23:16:00,
2013-01-18 18:21:00,70.2,56.1,30.12,ESE,112,3.5,3.5,61,0.00,CLR,,0.00,WeatherDisplay:10.37,2013-01-18 23:21:00,
2013-01-18 18:26:00,70.2,56.1,30.11,NNE,22,4.6,4.6,61,0.00,CLR,,0.00,WeatherDisplay:10.37,2013-01-18 23:26:00,
2013-01-18 18:31:00,70.0,55.9,30.11,NE,45,5.8,5.8,61,0.00,CLR,,0.00,WeatherDisplay:10.37,2013-01-18 23:31:00,
2013-01-18 18:36:00,70.0,55.9,30.11,ENE,68,5.8,5.8,61,0.00,CLR,,0.00,WeatherDisplay:10.37,2013-01-18 23:36:00,
2013-01-18 18:41:00,70.0,55.9,30.11,WNW,292,5.8,5.8,61,0.00,CLR,,0.00,WeatherDisplay:10.37,2013-01-18 23:41:00,
2013-01-18 18:46:00,70.0,55.9,30.12,ESE,112,4.6,4.6,61,0.00,CLR,,0.00,WeatherDisplay:10.37,2013-01-18 23:46:00,
2013-01-18 18:51:00,70.0,55.9,30.12,East,90,3.5,3.5,61,0.00,CLR,,0.00,WeatherDisplay:10.37,2013-01-18 23:51:00,
2013-01-18 18:56:00,70.0,55.9,30.12,NE,45,8.1,8.1,61,0.00,CLR,,0.00,WeatherDisplay:10.37,2013-01-18 23:56:00,
2013-01-18 19:01:00,69.8,55.7,30.12,NNW,338,3.5,3.5,61,0.00,CLR,,0.00,WeatherDisplay:10.37,2013-01-19 00:01:00,
2013-01-18 19:06:00,70.0,55.5,30.13,WSW,248,11.5,11.5,60,0.00,CLR,,0.00,WeatherDisplay:10.37,2013-01-19 00:06:00,
2013-01-18 19:11:00,70.0,55.9,30.13,NE,45,5.8,5.8,61,0.00,CLR,,0.00,WeatherDisplay:10.37,2013-01-19 00:11:00,
2013-01-18 19:16:00,70.0,56.4,30.13,NNE,22,6.9,6.9,62,0.00,CLR,,0.00,WeatherDisplay:10.37,2013-01-19 00:16:00,
2013-01-18 19:21:00,70.0,56.4,30.13,NE,45,6.9,6.9,62,0.00,CLR,,0.00,WeatherDisplay:10.37,2013-01-19 00:21:00,
2013-01-18 19:26:00,70.0,56.4,30.13,NNE,22,3.5,3.5,62,0.00,CLR,,0.00,WeatherDisplay:10.37,2013-01-19 00:26:00,
2013-01-18 19:31:00,69.8,56.2,30.13,NNE,22,2.3,2.6,62,0.00,CLR,,0.00,WeatherDisplay:10.37,2013-01-19 00:31:00,
2013-01-18 19:36:00,69.8,56.2,30.13,NE,45,4.6,4.6,62,0.00,CLR,,0.00,WeatherDisplay:10.37,2013-01-19 00:36:00,
2013-01-18 19:41:00,69.8,56.2,30.13,East,90,1.1,2.9,62,0.00,CLR,,0.00,WeatherDisplay:10.37,2013-01-19 00:41:00,
2013-01-18 19:46:00,70.0,56.8,30.14,ENE,68,5.8,5.8,63,0.00,CLR,,0.00,WeatherDisplay:10.37,2013-01-19 00:46:00,
2013-01-18 19:51:00,70.0,56.8,30.14,NE,45,5.8,5.8,63,0.00,CLR,,0.00,WeatherDisplay:10.37,2013-01-19 00:51:00,
2013-01-18 19:56:00,69.8,56.6,30.14,NE,45,4.6,4.6,63,0.00,CLR,,0.00,WeatherDisplay:10.37,2013-01-19 00:56:00,
2013-01-18 20:01:00,69.4,56.3,30.14,NE,45,4.6,4.6,63,0.00,CLR,,0.00,WeatherDisplay:10.37,2013-01-19 01:01:00,
2013-01-18 20:06:00,69.4,56.7,30.13,SW,225,5.8,5.8,64,0.00,CLR,,0.00,WeatherDisplay:10.37,2013-01-19 01:06:00,
2013-01-18 20:11:00,69.6,56.9,30.13,NE,45,6.9,6.9,64,0.00,CLR,,0.00,WeatherDisplay:10.37,2013-01-19 01:11:00,
2013-01-18 20:17:00,69.6,57.3,30.13,ENE,68,5.8,5.8,65,0.00,CLR,,0.00,WeatherDisplay:10.37,2013-01-19 01:17:00,
2013-01-18 20:22:00,69.6,56.9,30.13,ESE,112,5.8,5.8,64,0.00,CLR,,0.00,WeatherDisplay:10.37,2013-01-19 01:22:00,
2013-01-18 20:27:00,69.6,56.5,30.13,SE,135,4.6,4.6,63,0.00,CLR,,0.00,WeatherDisplay:10.37,2013-01-19 01:27:00,
2013-01-18 20:32:00,69.4,56.7,30.13,NNW,338,1.1,3.0,64,0.00,CLR,,0.00,WeatherDisplay:10.37,2013-01-19 01:32:00,
2013-01-18 20:37:00,69.4,56.7,30.13,NE,45,5.8,5.8,64,0.00,CLR,,0.00,WeatherDisplay:10.37,2013-01-19 01:37:00,
2013-01-18 20:42:00,69.4,56.7,30.13,East,90,2.3,3.6,64,0.00,CLR,,0.00,WeatherDisplay:10.37,2013-01-19 01:42:00,
2013-01-18 20:47:00,69.6,56.9,30.13,NW,315,6.9,6.9,64,0.00,CLR,,0.00,WeatherDisplay:10.37,2013-01-19 01:47:00,
2013-01-18 20:52:00,69.6,56.9,30.13,ENE,68,8.1,8.1,64,0.00,CLR,,0.00,WeatherDisplay:10.37,2013-01-19 01:52:00,
2013-01-18 20:57:00,69.4,56.7,30.13,South,180,4.6,4.6,64,0.00,CLR,,0.00,WeatherDisplay:10.37,2013-01-19 01:57:00,
2013-01-18 21:02:00,69.6,56.5,30.13,NNE,22,5.8,5.8,63,0.00,CLR,,0.00,WeatherDisplay:10.37,2013-01-19 02:02:00,
2013-01-18 21:07:00,69.6,56.9,30.13,ENE,68,4.6,4.6,64,0.00,CLR,,0.00,WeatherDisplay:10.37,2013-01-19 02:07:00,
2013-01-18 21:12:00,69.6,56.9,30.13,NW,315,3.5,3.8,64,0.00,CLR,,0.00,WeatherDisplay:10.37,2013-01-19 02:12:00,
2013-01-18 21:17:00,69.6,56.9,30.13,NE,45,6.9,6.9,64,0.00,CLR,,0.00,WeatherDisplay:10.37,2013-01-19 02:17:00,
2013-01-18 21:22:00,69.4,56.7,30.13,ESE,112,3.5,3.5,64,0.00,CLR,,0.00,WeatherDisplay:10.37,2013-01-19 02:22:00,
2013-01-18 21:27:00,69.4,56.3,30.13,NW,315,4.6,4.6,63,0.00,CLR,,0.00,WeatherDisplay:10.37,2013-01-19 02:27:00,
2013-01-18 21:32:00,69.4,55.9,30.13,NNE,22,3.5,3.5,62,0.00,CLR,,0.00,WeatherDisplay:10.37,2013-01-19 02:32:00,
2013-01-18 21:37:00,69.4,56.3,30.13,NNW,338,3.5,3.5,63,0.00,CLR,,0.00,WeatherDisplay:10.37,2013-01-19 02:37:00,
2013-01-18 21:42:00,69.6,56.5,30.13,ENE,68,6.9,6.9,63,0.00,CLR,,0.00,WeatherDisplay:10.37,2013-01-19 02:42:00,
2013-01-18 21:48:00,69.4,56.3,30.14,NE,45,10.4,10.4,63,0.00,CLR,,0.00,WeatherDisplay:10.37,2013-01-19 02:48:00,
2013-01-18 21:53:00,69.8,56.2,30.14,NE,45,6.9,6.9,62,0.00,CLR,,0.00,WeatherDisplay:10.37,2013-01-19 02:53:00,
2013-01-18 21:58:00,69.8,56.2,30.14,NNE,22,1.1,3.3,62,0.00,CLR,,0.00,WeatherDisplay:10.37,2013-01-19 02:58:00,
2013-01-18 22:03:00,69.6,56.0,30.14,ENE,68,4.6,4.6,62,0.00,CLR,,0.00,WeatherDisplay:10.37,2013-01-19 03:03:00,
2013-01-18 22:08:00,69.8,55.7,30.13,NNW,338,4.6,4.6,61,0.00,CLR,,0.00,WeatherDisplay:10.37,2013-01-19 03:08:00,
2013-01-18 22:13:00,69.8,56.2,30.13,NE,45,5.8,5.8,62,0.00,CLR,,0.00,WeatherDisplay:10.37,2013-01-19 03:13:00,
2013-01-18 22:18:00,70.0,56.4,30.13,ENE,68,8.1,8.1,62,0.00,CLR,,0.00,WeatherDisplay:10.37,2013-01-19 03:18:00,
2013-01-18 22:23:00,70.0,56.8,30.13,ENE,68,6.9,6.9,63,0.00,CLR,,0.00,WeatherDisplay:10.37,2013-01-19 03:23:00,
2013-01-18 22:28:00,70.0,56.8,30.14,ENE,68,1.1,3.1,63,0.00,CLR,,0.00,WeatherDisplay:10.37,2013-01-19 03:28:00,
2013-01-18 22:33:00,70.0,56.8,30.14,ESE,112,2.3,2.6,63,0.00,CLR,,0.00,WeatherDisplay:10.37,2013-01-19 03:33:00,
2013-01-18 22:38:00,70.0,56.8,30.14,ENE,68,5.8,5.8,63,0.00,CLR,,0.00,WeatherDisplay:10.37,2013-01-19 03:38:00,
2013-01-18 22:43:00,69.8,57.1,30.14,ENE,68,5.8,5.8,64,0.00,CLR,,0.00,WeatherDisplay:10.37,2013-01-19 03:43:00,
2013-01-18 22:48:00,70.0,57.2,30.13,ESE,112,5.8,5.8,64,0.00,CLR,,0.00,WeatherDisplay:10.37,2013-01-19 03:48:00,
2013-01-18 22:53:00,69.8,57.5,30.13,NNE,22,3.5,3.5,65,0.00,CLR,,0.00,WeatherDisplay:10.37,2013-01-19 03:53:00,
2013-01-18 22:58:00,70.0,57.7,30.13,North,0,0.0,2.3,65,0.00,CLR,,0.00,WeatherDisplay:10.37,2013-01-19 03:58:00,
2013-01-18 23:03:00,69.8,57.9,30.13,ESE,112,4.6,4.6,66,0.00,CLR,,0.00,WeatherDisplay:10.37,2013-01-19 04:03:00,
2013-01-18 23:08:00,70.0,58.5,30.12,ENE,68,3.5,3.5,67,0.00,CLR,,0.00,WeatherDisplay:10.37,2013-01-19 04:08:00,
2013-01-18 23:13:00,70.2,58.7,30.12,ESE,112,5.8,5.8,67,0.00,CLR,,0.00,WeatherDisplay:10.37,2013-01-19 04:13:00,
2013-01-18 23:18:00,70.2,58.7,30.12,SSE,158,4.6,4.6,67,0.00,CLR,,0.00,WeatherDisplay:10.37,2013-01-19 04:18:00,
2013-01-18 23:23:00,70.2,58.7,30.12,ESE,112,4.6,4.6,67,0.00,CLR,,0.00,WeatherDisplay:10.37,2013-01-19 04:23:00,
2013-01-18 23:28:00,70.3,58.9,30.12,ESE,112,3.5,3.5,67,0.00,CLR,,0.00,WeatherDisplay:10.37,2013-01-19 04:28:00,
2013-01-18 23:33:00,70.3,58.9,30.12,ESE,112,4.6,4.6,67,0.00,CLR,,0.00,WeatherDisplay:10.37,2013-01-19 04:33:00,
2013-01-18 23:38:00,70.2,58.7,30.12,SSE,158,3.5,3.5,67,0.00,CLR,,0.00,WeatherDisplay:10.37,2013-01-19 04:38:00,
2013-01-18 23:43:00,70.2,58.7,30.12,ENE,68,4.6,4.6,67,0.00,CLR,,0.00,WeatherDisplay:10.37,2013-01-19 04:43:00,
2013-01-18 23:48:00,70.2,58.7,30.11,ESE,112,5.8,5.8,67,0.00,CLR,,0.00,WeatherDisplay:10.37,2013-01-19 04:48:00,
2013-01-18 23:53:00,70.2,58.7,30.11,NE,45,4.6,4.6,67,0.00,CLR,,0.00,WeatherDisplay:10.37,2013-01-19 04:53:00,
2013-01-18 23:58:00,70.2,58.7,30.11,NE,45,3.5,3.5,67,0.00,CLR,,0.00,WeatherDisplay:10.37,2013-01-19 04:58:00,